Location: Sihaung
(22.8641°N, 94.0549°E)
Time: 17:41:16
(UTC+00:00)

Helios 1A Rocket - Pass Details

Date: 03 March 2021
Orbit: 563 x 585 km, 98.3° (Epoch: 13 April)

Event Time Altitude Azimuth Distance (km) Brightness Sun altitude
Rises 12:42:53 0° 154° (SSE) 2,775 6.2 -13.4°
Reaches altitude 10° 12:45:06 10° 148° (SSE) 1,876 5.2 -13.9°
Maximum altitude 12:48:59 44° 75° (ENE) 792 3.2 -14.8°
Drops below altitude 10° 12:52:50 10° 3° (N) 1,870 5.5 -15.7°
Sets 12:55:02 0° 357° (N) 2,766 6.4 -16.2°
